Location: Le Castellard
(44.1862°N, 6.1301°E)
Time: 18:42:50
(UTC+00:00)

Meteor 2-10 - Pass Details

Date: 18 January 2020
Orbit: 737 x 869 km, 81.2° (Epoch: 20 February)

Event Time Altitude Azimuth Distance (km) Brightness Sun altitude
Rises 05:38:45 0° 186° (S) 3,413 7.5 -15.4°
Reaches altitude 10° 05:41:11 10° 186° (S) 2,468 6.7 -15.0°
Maximum altitude 05:46:48 84° 100° (E) 842 4.2 -14.0°
Drops below altitude 10° 05:52:16 10° 12° (NNE) 2,404 6.5 -13.1°
Sets 05:54:37 0° 12° (NNE) 3,319 7.2 -12.7°
